SCP
-0 -0 -0 -0 -0 -0 -0 -0 -0 -0 -0 -0 -0 0 -0 -0 -0 -0 -0 -0 0 0 0 -0 -0 -0 -0 -0 0 0 0 0 0 0 0 -0 -0 -0 0 0 0 -0 0
-0 -0 -0 -0 -0 -0 -0 -0 -0 -0 -0 -0 -0 -0 -0 -0 -0 -0 -0 -0 -0 -0 0 0 -0 0 -0 0 0 0 0 0 0 -0 -0 -0 0 0 0 0 -0 -0 -0
-0 -0 -0 -0 -0 -0 -0 -0 -0 -0 -0 -0 -0 -0 -0 -0 -0 -0 -0 -0 -0 -0 -0 -0 0 0 0 0 0 0 0 0 0 0 -0 -0 0 0 0 -0 -0 0 -0
-0 -0 -0 -0 -0 -0 -0 -0 -0 -0 -0 -0 -0 -0 -0 -0 -0 -0 -0 -0 -0 -0 -0 -0 -0 0 0 0 0 0 0 0 0 0 -0 -0 -0 0 0 0 0 -0 -0
-0 -0 -1 -0 -0 -0 -0 -0 -0 -0 -0 -0 -0 -0 0 -0 -0 -0 -0 -0 -0 -0 -0 -0 0 0 0 -0 0 0 0 0 0 0 0 0 0 0 0 -0 -0 0 0
-0 -1 -1 -0 -0 -0 -0 -0 -0 -0 -0 -0 -0 -0 -0 0 -0 -0 -0 -0 -0 -0 -0 -0 0 -0 -0 -0 0 0 0 0 0 0 0 0 -0 0 0 0 0 -0 -0
0 -1 -0 -0 -0 -0 -0 -0 -0 -0 -0 -0 0 -0 0 -0 -0 -0 -0 -0 -0 -0 -0 -0 -0 0 -0 0 -0 -0 0 0 0 -0 -0 0 0 0 -0 0 -0 -0 0
0 0 -0 -0 -0 -0 -0 -0 -0 -0 -0 -0 -0 -0 0 0 -0 0 -0 -0 -0 -0 -0 -0 -0 -0 -0 -0 -0 0 0 0 0 0 0 -0 -0 -0 -0 -0 0 0 0
0 0 0 -0 -0 -0 -0 -0 -0 -0 -0 -0 0 0 -0 0 -0 0 -0 -0 -0 -0 -0 -0 -0 -0 -0 -0 0 0 0 -0 0 0 0 -0 -0 -0 -0 -0 0 0 0
0 1 0 -0 0 0 -0 -0 -0 -0 0 -0 0 0 0 -0 -0 -0 -0 -0 -0 -0 -0 -0 -0 -0 -0 -0 0 0 0 -0 -0 0 0 -0 -0 -0 -0 -0 -0 -0 -0
0 1 1 -0 0 0 0 -0 -0 -0 0 0 0 -0 0 0 0 0 -0 0 -0 -0 -0 -0 -0 -0 -0 -0 -0 -0 0 0 -0 0 0 -1 -0 -0 -0 -0 -0 -0 -0
1 1 1 -0 -0 -0 0 0 -0 0 0 0 0 0 0 0 0 0 0 0 0 -0 -0 -0 -0 -0 -0 -0 0 0 0 0 0 0 -0 -0 -0 -0 -0 -0 -0 -0 -0
1 1 2 1 -0 -0 0 0 0 0 0 0 0 0 0 0 0 0 0 0 -0 -0 -0 -0 0 -0 -0 -0 0 -0 -0 -0 0 0 0 -0 -0 -0 -0 0 0 0 -0
1 1 1 1 1 0 0 -0 0 0 0 0 0 0 0 0 0 0 0 0 0 0 0 0 0 -0 0 0 0 0 0 0 0 0 0 -0 -0 0 0 0 0 0 0
1 1 1 1 1 0 -0 -0 0 0 0 0 0 0 0 0 0 0 0 0 0 0 0 0 0 0 0 0 0 0 0 0 0 0 1 0 0 0 0 0 0 0 0
1 1 1 1 1 1 0 -0 0 0 0 -0 0 0 0 0 0 0 0 0 0 0 0 0 0 0 0 0 0 0 0 0 0 0 0 0 0 0 0 0 0 0 0
1 1 1 1 0 0 0 0 -0 -0 0 0 0 1 0 0 0 0 0 0 0 0 0 0 0 0 0 0 0 0 0 0 0 0 0 0 0 0 0 -0 -0 0 -0
1 1 1 0 0 0 0 0 0 -0 0 0 0 0 0 0 0 0 0 0 0 0 0 0 0 0 0 0 0 0 0 0 0 0 0 0 0 0 0 0 -0 -0 0
0 0 0 0 0 0 0 0 0 0 -0 0 0 0 0 0 0 0 0 0 0 0 0 0 0 0 0 0 0 0 0 0 0 -0 -0 0 0 0 0 0 -0 0 0
0 0 0 0 0 0 0 0 0 0 0 0 0 0 0 0 0 0 0 0 0 0 0 0 0 0 0 0 0 0 1 0 0 0 0 0 1 1 0 0 0 0 0
0 0 0 0 0 0 0 0 0 0 0 0 0 0 0 0 0 0 0 0 0 0 0 1 0 0 0 0 0 0 0 0 0 0 0 0 1 0 0 -0 0 0 0
0 0 0 0 0 0 0 0 0 0 0 0 0 0 0 0 0 0 0 0 0 0 0 0 0 0 0 0 0 0 0 0 0 0 0 0 0 0 0 0 0 0 0
0 0 0 0 0 0 1 0 0 0 0 0 0 0 0 0 0 0 0 0 0 0 0 0 0 0 0 1 0 0 0 0 0 0 0 0 0 0 0 0 0 0 1
0 0 0 0 0 0 0 0 0 0 0 0 0 0 0 0 0 0 0 0 0 0 0 0 0 0 0 0 0 0 0 0 0 0 0 0 0 0 0 1 0 0 0
0 0 0 0 0 0 0 0 0 0 0 0 0 0 0 0 0 0 0 0 0 0 0 0 0 0 0 0 0 0 0 0 0 0 0 0 0 0 0 0 0 0 0
0 -0 -0 -0 0 0 0 0 0 1 0 0 0 0 0 0 0 0 0 0 0 0 0 0 0 0 0 0 0 0 0 0 0 0 0 0 0 0 0 0 0 0 0
Wind_Speed_500mb
29 27 31 31 29 29 26 25 22 21 22 25 23 21 17 16 17 18 18 18 16 15 13 13 11 8 8 11 15 16 20 22 23 24 27 27 27 28 29 32 30 14 22
28 28 31 30 28 26 23 22 22 22 22 23 21 17 15 14 15 16 17 17 16 15 13 12 12 13 12 12 16 21 25 26 26 20 23 23 24 24 26 31 27 17 23
25 26 32 30 28 26 22 19 21 23 23 22 20 17 12 12 16 19 19 18 15 13 12 12 13 14 9 15 22 19 25 25 29 40 35 22 15 21 21 25 20 23 21
25 21 26 31 28 26 24 22 20 24 25 23 19 17 13 14 18 18 16 16 14 13 14 15 14 10 11 22 21 20 21 26 36 31 23 9 11 15 21 22 20 21 20
26 24 28 27 28 26 25 26 24 23 24 21 18 16 12 14 16 18 17 16 15 15 15 15 10 11 19 22 20 22 23 29 31 27 16 16 9 9 17 19 18 17 23
27 33 23 24 28 27 27 27 25 22 21 22 18 14 15 11 14 15 17 16 16 14 14 12 12 17 20 21 21 18 22 30 28 14 9 16 23 7 17 19 19 11 14
24 29 24 26 28 28 28 27 25 22 18 19 20 18 13 14 10 13 15 15 15 14 13 10 13 18 19 20 18 17 27 25 21 10 9 8 9 11 12 16 13 9 9
22 23 23 29 28 28 29 28 27 24 21 17 18 17 15 16 12 12 12 12 13 12 11 10 12 19 19 21 20 19 23 22 15 7 9 9 10 10 11 10 10 8 6
20 21 20 22 25 27 29 29 29 26 24 20 17 16 15 17 10 11 12 12 10 11 11 11 13 18 20 21 18 16 14 15 18 14 5 8 3 6 8 9 9 10 8
19 17 23 27 17 21 25 30 30 28 25 23 19 16 17 18 14 11 10 10 11 12 11 13 15 17 20 19 16 12 11 21 18 12 7 15 16 9 8 9 9 9 9
19 17 28 23 20 22 25 27 31 31 29 26 22 22 20 13 13 12 10 18 13 14 14 14 16 19 20 21 20 14 13 10 16 14 16 19 12 8 9 9 8 9 9
21 14 16 10 16 17 24 25 28 26 23 23 22 24 21 21 23 25 22 17 17 16 14 15 18 19 19 16 14 16 17 15 15 7 16 19 21 9 5 8 10 10 11
19 17 20 21 19 19 24 22 24 27 31 34 29 31 28 25 16 15 18 10 15 14 8 9 16 18 19 21 26 12 15 23 11 22 16 17 20 15 10 8 9 11 13
18 17 17 13 14 12 16 20 20 26 27 29 30 29 26 21 26 23 22 19 16 14 21 20 19 18 22 19 20 23 19 18 21 19 27 24 24 17 15 15 13 13 12
17 17 19 17 8 13 21 23 26 27 23 20 21 24 25 22 25 25 21 16 15 19 16 16 24 19 27 20 22 28 23 22 23 19 26 21 25 28 20 17 22 19 18
17 16 20 14 8 8 14 30 33 32 30 26 28 28 27 18 27 24 23 21 20 20 18 18 20 20 17 15 17 22 24 25 24 25 23 28 30 27 31 23 20 22 20
18 16 18 15 9 4 6 11 22 39 44 40 43 34 29 34 24 25 24 23 25 24 27 17 15 24 23 21 21 19 21 23 27 27 26 25 31 32 27 26 27 24 23
18 18 22 19 14 8 7 11 14 18 26 25 35 43 39 33 36 33 28 27 24 24 24 24 29 26 21 21 19 19 22 21 26 26 31 30 27 29 23 25 27 28 30
17 18 23 20 18 13 7 10 9 17 21 29 33 36 43 48 40 40 34 35 40 24 27 24 25 21 20 25 28 24 26 26 28 30 31 31 33 40 34 32 28 32 30
17 19 22 20 19 20 13 12 10 13 18 28 39 50 46 49 50 43 41 43 42 40 30 34 34 28 29 30 26 29 26 30 31 33 34 35 41 36 50 41 33 28 29
16 19 25 23 22 17 13 13 12 8 12 17 19 32 44 44 44 53 47 36 46 38 40 37 32 35 32 25 36 31 33 34 34 33 34 29 29 41 34 36 39 42 30
20 18 20 22 23 21 15 15 12 8 5 3 7 9 20 33 38 43 51 51 42 38 43 45 40 35 32 35 35 27 27 27 25 30 39 29 29 29 29 24 34 43 42
25 21 21 21 21 21 19 15 8 3 13 12 8 7 8 18 25 29 42 47 43 45 42 43 41 44 49 41 34 24 13 13 14 22 26 27 30 24 22 24 29 30 31
25 21 21 23 25 23 25 18 17 7 5 1 4 5 3 8 20 22 25 36 35 37 43 43 47 50 46 44 36 34 35 30 11 9 7 10 11 12 15 16 21 24 26
27 24 21 23 26 24 22 19 12 8 6 5 2 9 4 4 3 25 21 20 28 32 31 34 40 37 45 42 40 34 31 32 33 31 33 18 20 22 20 18 17 17 18
29 26 22 24 26 25 21 19 16 9 8 6 12 8 6 5 5 13 18 17 18 24 21 21 21 24 25 30 32 31 31 28 24 32 31 27 25 27 21 20 21 15 9
Wind_Direction_500mb
152 167 162 156 155 155 161 163 157 157 151 156 153 150 135 116 115 120 125 124 127 120 117 119 147 140 110 106 106 97 107 114 111 104 107 109 108 108 108 95 85 121 112
154 160 161 161 162 164 166 166 166 167 161 159 156 157 147 123 124 123 122 128 127 125 126 118 120 131 121 110 112 107 110 112 105 90 101 102 108 114 121 120 139 129 119
149 162 161 163 170 170 169 173 165 163 165 169 166 164 152 138 129 124 123 121 129 122 126 125 128 131 134 124 122 119 116 113 90 88 87 86 108 114 121 131 128 105 115
149 163 167 163 171 173 172 174 167 167 170 172 171 166 163 146 134 138 135 130 134 122 121 119 130 134 137 129 133 138 124 112 96 90 81 108 106 110 118 128 121 111 105
155 161 190 172 173 174 176 174 172 172 169 172 173 173 165 154 148 148 138 127 125 131 125 122 128 142 135 129 137 133 117 113 90 85 118 111 115 124 121 111 99 109 111
166 161 201 185 178 180 179 175 173 179 173 171 173 174 165 159 156 144 141 133 131 133 135 122 131 139 143 139 143 134 123 107 90 94 106 129 143 120 142 137 154 143 145
155 155 217 192 186 186 186 181 180 180 186 175 168 169 174 157 155 160 150 148 137 136 136 129 145 149 150 152 153 139 126 112 100 125 121 129 257 206 153 152 151 149 134
159 155 193 184 185 193 194 188 188 187 190 187 188 189 181 166 150 155 142 148 151 146 149 149 150 166 158 154 159 145 142 123 118 143 150 192 257 183 159 152 156 153 117
162 171 171 184 189 194 201 196 194 195 197 196 204 190 183 183 182 180 179 175 153 166 167 163 164 174 169 166 163 173 176 132 134 160 138 238 239 205 191 158 167 168 169
174 180 187 183 199 202 207 203 199 198 205 203 199 205 204 206 210 203 207 209 195 184 182 183 172 176 179 182 180 176 153 138 141 181 186 221 261 256 211 183 179 184 189
179 204 201 189 189 218 210 212 206 203 207 208 206 208 208 193 233 239 212 226 220 205 199 194 189 190 189 195 199 201 182 184 226 192 228 219 289 236 215 202 202 204 203
187 194 212 153 194 207 211 214 205 208 207 208 210 229 199 199 210 205 217 220 222 210 208 209 208 208 202 210 220 229 213 242 224 246 260 259 258 236 214 210 213 220 220
193 182 205 229 220 240 213 225 212 211 200 204 206 210 200 204 202 207 228 266 228 215 218 245 227 220 219 204 222 236 218 220 233 214 230 255 255 247 246 243 238 236 237
185 187 196 216 206 202 218 221 241 219 208 207 208 210 205 203 183 196 233 185 216 215 225 206 218 199 234 213 227 229 223 234 228 245 253 260 260 260 251 247 245 245 247
178 187 200 218 191 215 226 231 211 194 220 197 215 217 203 199 199 200 209 217 215 216 230 208 215 215 213 229 227 215 228 232 240 245 265 255 276 266 257 274 255 250 247
182 187 221 213 194 242 228 226 208 202 191 208 201 228 218 198 228 203 207 211 221 230 214 203 238 240 215 224 253 251 229 227 240 239 241 270 276 282 268 265 269 251 249
186 191 200 197 196 3 72 153 198 208 207 206 203 196 214 206 228 195 213 212 212 229 203 214 221 229 229 212 233 236 233 242 244 244 246 241 281 281 288 275 271 260 255
182 189 188 192 198 182 121 151 176 209 210 223 232 227 226 219 210 215 210 214 225 225 224 220 224 235 216 231 232 242 252 250 254 249 255 251 237 276 271 274 270 266 264
186 185 185 191 193 190 189 183 177 202 218 224 228 236 249 232 228 221 218 213 210 217 233 241 238 232 238 230 247 248 251 260 262 263 254 252 262 255 246 252 265 268 256
187 188 188 182 197 194 184 172 195 242 253 253 246 233 232 239 233 234 238 236 226 231 237 240 235 229 230 245 252 257 248 255 260 256 256 249 250 247 249 263 252 238 271
182 183 186 183 196 182 185 180 183 217 252 268 277 248 237 233 229 234 240 236 235 235 222 232 238 225 227 245 249 256 262 264 266 262 262 251 263 262 258 269 274 275 260
185 189 194 192 193 180 181 188 190 185 268 261 291 285 235 224 225 232 236 225 237 239 238 238 240 243 249 246 252 251 266 276 265 257 252 245 252 260 261 251 265 265 265
189 190 200 200 187 183 192 194 193 12 14 5 331 347 245 228 228 237 230 224 237 247 244 250 247 245 246 242 247 240 254 254 276 265 251 256 262 253 263 265 265 265 264
199 195 203 203 196 198 194 201 193 208 186 187 295 236 279 237 231 226 225 231 237 242 251 256 251 251 245 235 244 245 248 255 283 319 207 265 285 280 271 244 276 271 265
199 199 201 205 200 203 207 189 204 209 218 271 146 260 218 272 213 206 206 238 245 245 249 252 251 254 238 238 240 251 247 259 252 254 278 251 283 276 252 250 270 273 266
193 194 197 208 204 202 208 209 209 207 220 224 209 208 218 180 212 199 201 221 247 248 263 258 261 252 240 240 241 242 245 247 248 244 247 255 260 267 259 253 255 261 241
Wind_Speed_850mb
29 27 31 31 29 29 26 25 22 21 22 25 23 21 17 16 17 18 18 18 16 15 13 13 11 8 8 11 15 16 20 22 23 24 27 27 27 28 29 32 30 14 22
28 28 31 30 28 26 23 22 22 22 22 23 21 17 15 14 15 16 17 17 16 15 13 12 12 13 12 12 16 21 25 26 26 20 23 23 24 24 26 31 27 17 23
25 26 32 30 28 26 22 19 21 23 23 22 20 17 12 12 16 19 19 18 15 13 12 12 13 14 9 15 22 19 25 25 29 40 35 22 15 21 21 25 20 23 21
25 21 26 31 28 26 24 22 20 24 25 23 19 17 13 14 18 18 16 16 14 13 14 15 14 10 11 22 21 20 21 26 36 31 23 9 11 15 21 22 20 21 20
26 24 28 27 28 26 25 26 24 23 24 21 18 16 12 14 16 18 17 16 15 15 15 15 10 11 19 22 20 22 23 29 31 27 16 16 9 9 17 19 18 17 23
27 33 23 24 28 27 27 27 25 22 21 22 18 14 15 11 14 15 17 16 16 14 14 12 12 17 20 21 21 18 22 30 28 14 9 16 23 7 17 19 19 11 14
24 29 24 26 28 28 28 27 25 22 18 19 20 18 13 14 10 13 15 15 15 14 13 10 13 18 19 20 18 17 27 25 21 10 9 8 9 11 12 16 13 9 9
22 23 23 29 28 28 29 28 27 24 21 17 18 17 15 16 12 12 12 12 13 12 11 10 12 19 19 21 20 19 23 22 15 7 9 9 10 10 11 10 10 8 6
20 21 20 22 25 27 29 29 29 26 24 20 17 16 15 17 10 11 12 12 10 11 11 11 13 18 20 21 18 16 14 15 18 14 5 8 3 6 8 9 9 10 8
19 17 23 27 17 21 25 30 30 28 25 23 19 16 17 18 14 11 10 10 11 12 11 13 15 17 20 19 16 12 11 21 18 12 7 15 16 9 8 9 9 9 9
19 17 28 23 20 22 25 27 31 31 29 26 22 22 20 13 13 12 10 18 13 14 14 14 16 19 20 21 20 14 13 10 16 14 16 19 12 8 9 9 8 9 9
21 14 16 10 16 17 24 25 28 26 23 23 22 24 21 21 23 25 22 17 17 16 14 15 18 19 19 16 14 16 17 15 15 7 16 19 21 9 5 8 10 10 11
19 17 20 21 19 19 24 22 24 27 31 34 29 31 28 25 16 15 18 10 15 14 8 9 16 18 19 21 26 12 15 23 11 22 16 17 20 15 10 8 9 11 13
18 17 17 13 14 12 16 20 20 26 27 29 30 29 26 21 26 23 22 19 16 14 21 20 19 18 22 19 20 23 19 18 21 19 27 24 24 17 15 15 13 13 12
17 17 19 17 8 13 21 23 26 27 23 20 21 24 25 22 25 25 21 16 15 19 16 16 24 19 27 20 22 28 23 22 23 19 26 21 25 28 20 17 22 19 18
17 16 20 14 8 8 14 30 33 32 30 26 28 28 27 18 27 24 23 21 20 20 18 18 20 20 17 15 17 22 24 25 24 25 23 28 30 27 31 23 20 22 20
18 16 18 15 9 4 6 11 22 39 44 40 43 34 29 34 24 25 24 23 25 24 27 17 15 24 23 21 21 19 21 23 27 27 26 25 31 32 27 26 27 24 23
18 18 22 19 14 8 7 11 14 18 26 25 35 43 39 33 36 33 28 27 24 24 24 24 29 26 21 21 19 19 22 21 26 26 31 30 27 29 23 25 27 28 30
17 18 23 20 18 13 7 10 9 17 21 29 33 36 43 48 40 40 34 35 40 24 27 24 25 21 20 25 28 24 26 26 28 30 31 31 33 40 34 32 28 32 30
17 19 22 20 19 20 13 12 10 13 18 28 39 50 46 49 50 43 41 43 42 40 30 34 34 28 29 30 26 29 26 30 31 33 34 35 41 36 50 41 33 28 29
16 19 25 23 22 17 13 13 12 8 12 17 19 32 44 44 44 53 47 36 46 38 40 37 32 35 32 25 36 31 33 34 34 33 34 29 29 41 34 36 39 42 30
20 18 20 22 23 21 15 15 12 8 5 3 7 9 20 33 38 43 51 51 42 38 43 45 40 35 32 35 35 27 27 27 25 30 39 29 29 29 29 24 34 43 42
25 21 21 21 21 21 19 15 8 3 13 12 8 7 8 18 25 29 42 47 43 45 42 43 41 44 49 41 34 24 13 13 14 22 26 27 30 24 22 24 29 30 31
25 21 21 23 25 23 25 18 17 7 5 1 4 5 3 8 20 22 25 36 35 37 43 43 47 50 46 44 36 34 35 30 11 9 7 10 11 12 15 16 21 24 26
27 24 21 23 26 24 22 19 12 8 6 5 2 9 4 4 3 25 21 20 28 32 31 34 40 37 45 42 40 34 31 32 33 31 33 18 20 22 20 18 17 17 18
29 26 22 24 26 25 21 19 16 9 8 6 12 8 6 5 5 13 18 17 18 24 21 21 21 24 25 30 32 31 31 28 24 32 31 27 25 27 21 20 21 15 9
Wind_Direction_850mb
152 167 162 156 155 155 161 163 157 157 151 156 153 150 135 116 115 120 125 124 127 120 117 119 147 140 110 106 106 97 107 114 111 104 107 109 108 108 108 95 85 121 112
154 160 161 161 162 164 166 166 166 167 161 159 156 157 147 123 124 123 122 128 127 125 126 118 120 131 121 110 112 107 110 112 105 90 101 102 108 114 121 120 139 129 119
149 162 161 163 170 170 169 173 165 163 165 169 166 164 152 138 129 124 123 121 129 122 126 125 128 131 134 124 122 119 116 113 90 88 87 86 108 114 121 131 128 105 115
149 163 167 163 171 173 172 174 167 167 170 172 171 166 163 146 134 138 135 130 134 122 121 119 130 134 137 129 133 138 124 112 96 90 81 108 106 110 118 128 121 111 105
155 161 190 172 173 174 176 174 172 172 169 172 173 173 165 154 148 148 138 127 125 131 125 122 128 142 135 129 137 133 117 113 90 85 118 111 115 124 121 111 99 109 111
166 161 201 185 178 180 179 175 173 179 173 171 173 174 165 159 156 144 141 133 131 133 135 122 131 139 143 139 143 134 123 107 90 94 106 129 143 120 142 137 154 143 145
155 155 217 192 186 186 186 181 180 180 186 175 168 169 174 157 155 160 150 148 137 136 136 129 145 149 150 152 153 139 126 112 100 125 121 129 257 206 153 152 151 149 134
159 155 193 184 185 193 194 188 188 187 190 187 188 189 181 166 150 155 142 148 151 146 149 149 150 166 158 154 159 145 142 123 118 143 150 192 257 183 159 152 156 153 117
162 171 171 184 189 194 201 196 194 195 197 196 204 190 183 183 182 180 179 175 153 166 167 163 164 174 169 166 163 173 176 132 134 160 138 238 239 205 191 158 167 168 169
174 180 187 183 199 202 207 203 199 198 205 203 199 205 204 206 210 203 207 209 195 184 182 183 172 176 179 182 180 176 153 138 141 181 186 221 261 256 211 183 179 184 189
179 204 201 189 189 218 210 212 206 203 207 208 206 208 208 193 233 239 212 226 220 205 199 194 189 190 189 195 199 201 182 184 226 192 228 219 289 236 215 202 202 204 203
187 194 212 153 194 207 211 214 205 208 207 208 210 229 199 199 210 205 217 220 222 210 208 209 208 208 202 210 220 229 213 242 224 246 260 259 258 236 214 210 213 220 220
193 182 205 229 220 240 213 225 212 211 200 204 206 210 200 204 202 207 228 266 228 215 218 245 227 220 219 204 222 236 218 220 233 214 230 255 255 247 246 243 238 236 237
185 187 196 216 206 202 218 221 241 219 208 207 208 210 205 203 183 196 233 185 216 215 225 206 218 199 234 213 227 229 223 234 228 245 253 260 260 260 251 247 245 245 247
178 187 200 218 191 215 226 231 211 194 220 197 215 217 203 199 199 200 209 217 215 216 230 208 215 215 213 229 227 215 228 232 240 245 265 255 276 266 257 274 255 250 247
182 187 221 213 194 242 228 226 208 202 191 208 201 228 218 198 228 203 207 211 221 230 214 203 238 240 215 224 253 251 229 227 240 239 241 270 276 282 268 265 269 251 249
186 191 200 197 196 3 72 153 198 208 207 206 203 196 214 206 228 195 213 212 212 229 203 214 221 229 229 212 233 236 233 242 244 244 246 241 281 281 288 275 271 260 255
182 189 188 192 198 182 121 151 176 209 210 223 232 227 226 219 210 215 210 214 225 225 224 220 224 235 216 231 232 242 252 250 254 249 255 251 237 276 271 274 270 266 264
186 185 185 191 193 190 189 183 177 202 218 224 228 236 249 232 228 221 218 213 210 217 233 241 238 232 238 230 247 248 251 260 262 263 254 252 262 255 246 252 265 268 256
187 188 188 182 197 194 184 172 195 242 253 253 246 233 232 239 233 234 238 236 226 231 237 240 235 229 230 245 252 257 248 255 260 256 256 249 250 247 249 263 252 238 271
182 183 186 183 196 182 185 180 183 217 252 268 277 248 237 233 229 234 240 236 235 235 222 232 238 225 227 245 249 256 262 264 266 262 262 251 263 262 258 269 274 275 260
185 189 194 192 193 180 181 188 190 185 268 261 291 285 235 224 225 232 236 225 237 239 238 238 240 243 249 246 252 251 266 276 265 257 252 245 252 260 261 251 265 265 265
189 190 200 200 187 183 192 194 193 12 14 5 331 347 245 228 228 237 230 224 237 247 244 250 247 245 246 242 247 240 254 254 276 265 251 256 262 253 263 265 265 265 264
199 195 203 203 196 198 194 201 193 208 186 187 295 236 279 237 231 226 225 231 237 242 251 256 251 251 245 235 244 245 248 255 283 319 207 265 285 280 271 244 276 271 265
199 199 201 205 200 203 207 189 204 209 218 271 146 260 218 272 213 206 206 238 245 245 249 252 251 254 238 238 240 251 247 259 252 254 278 251 283 276 252 250 270 273 266
193 194 197 208 204 202 208 209 209 207 220 224 209 208 218 180 212 199 201 221 247 248 263 258 261 252 240 240 241 242 245 247 248 244 247 255 260 267 259 253 255 261 241